GEFSSGP_500_meanwind_000.txt.gz
Wind_Speed
9 6 5 3 4 3 4 11 13 14 13 12 12 12 10 10 10 9 8 10 13 14 14 13 13 13 14 14 14 12 12 11 11 10 11 10 10 9 10 12 13 15 15 15 15 14 11 10 10
6 5 3 1 2 4 4 6 7 9 12 12 9 10 9 10 10 9 7 8 9 10 10 10 10 11 11 11 12 12 12 11 10 8 8 7 5 6 7 8 9 11 12 13 14 13 11 9 8
8 6 2 0 1 2 1 2 3 3 5 7 6 6 8 8 8 9 8 6 5 6 6 5 6 8 8 8 9 9 10 10 8 6 4 3 4 5 5 6 8 10 11 12 12 12 11 9 7
9 8 4 2 2 2 2 5 6 4 2 1 1 1 2 3 3 5 6 6 5 5 2 0 2 4 4 4 5 6 6 6 6 5 4 3 4 4 5 6 7 10 12 12 11 11 10 9 7
10 9 8 7 5 4 5 7 8 7 6 6 8 8 4 4 4 3 3 4 4 3 2 3 3 2 1 2 2 1 1 1 2 3 4 4 3 3 4 5 7 9 12 14 14 13 13 11 9
8 9 11 12 11 8 6 8 9 9 11 12 12 11 8 7 8 6 5 4 5 5 5 6 5 5 6 6 6 6 6 5 2 1 2 1 2 3 4 7 11 11 11 12 13 13 14 14 12
7 8 8 7 6 8 9 9 8 9 13 14 15 10 8 7 9 8 7 7 9 8 8 9 9 10 12 12 12 13 11 9 6 3 2 3 5 6 6 9 10 11 10 10 11 13 14 16 16
10 11 12 10 8 9 9 10 10 9 12 15 16 11 11 10 11 11 9 10 11 10 10 11 12 13 15 15 15 16 14 12 10 8 7 7 7 7 7 6 7 8 10 11 12 13 15 18 18
13 15 17 17 16 15 12 11 10 9 8 11 13 12 12 14 13 12 11 10 11 11 12 14 14 14 16 16 17 17 15 14 14 14 13 13 10 9 9 6 7 8 10 12 13 15 17 19 20
17 18 21 22 23 22 15 10 9 8 7 7 9 8 9 12 13 12 11 11 11 12 13 15 16 17 17 18 18 18 17 17 18 18 19 19 18 15 11 9 9 10 10 11 12 14 15 17 20
21 21 24 27 28 27 21 14 11 9 8 9 10 10 8 10 11 12 14 14 14 14 16 17 19 21 21 21 22 22 24 24 24 24 25 24 22 18 14 13 11 11 10 11 13 13 13 15 18
25 25 27 31 31 27 25 20 17 13 13 15 14 13 14 14 13 14 17 18 16 16 17 19 21 23 26 27 26 27 28 28 26 27 28 25 21 19 18 16 14 12 11 12 15 15 17 19 19
28 30 31 32 31 28 27 26 25 20 20 20 19 20 20 19 19 20 19 17 15 16 19 22 24 24 25 26 26 27 26 24 23 22 21 20 19 18 18 19 16 14 13 14 16 16 19 22 22
32 32 32 31 31 29 30 29 31 26 25 25 24 24 25 26 26 24 20 19 21 21 21 22 24 25 28 32 34 34 33 32 28 26 23 20 20 20 21 21 19 17 16 17 17 18 19 21 23
34 33 32 31 31 33 34 31 31 31 30 29 29 29 30 32 34 30 25 23 26 27 27 28 29 29 31 34 37 38 39 40 38 34 31 28 26 23 22 21 20 19 19 19 19 20 21 21 23
36 36 34 33 34 37 40 38 36 36 35 35 36 36 36 36 37 35 32 29 29 32 35 35 35 35 37 38 38 41 42 44 45 42 38 35 32 26 22 22 21 20 21 21 23 23 24 25 26
34 37 38 35 39 41 43 44 42 41 41 41 42 42 41 39 36 36 35 33 32 32 36 38 40 40 39 40 41 43 46 46 48 48 43 40 35 29 25 23 23 22 24 26 27 27 27 28 30
30 32 33 32 39 40 41 44 44 42 44 44 44 43 41 39 38 37 37 37 37 38 41 41 42 44 46 49 49 50 51 50 51 51 44 41 38 33 27 24 26 27 28 29 30 31 32 32 32
23 24 24 25 31 33 33 35 37 38 38 40 42 41 41 44 42 40 38 39 40 40 43 46 43 43 48 53 52 51 51 53 56 56 48 45 44 38 29 26 29 30 30 31 34 36 37 38 38
24 24 23 22 24 24 24 26 28 28 28 32 36 37 39 41 42 44 46 43 44 44 44 44 41 40 43 47 48 48 50 53 57 60 61 56 48 45 35 30 30 31 32 32 35 38 39 39 40
27 28 29 27 26 27 27 28 29 29 28 29 31 32 33 34 38 43 42 48 44 38 38 38 40 42 42 41 41 41 43 46 50 53 51 47 48 49 38 33 32 31 31 31 34 37 39 37 37
27 29 30 29 29 29 30 31 32 33 34 34 35 36 35 35 37 42 44 44 46 42 38 39 44 45 48 46 39 40 37 44 44 50 53 53 46 38 32 32 31 31 32 32 33 34 35 35 35
26 27 27 28 29 30 31 34 33 35 37 38 40 41 43 44 44 45 46 47 49 49 50 51 53 50 48 51 45 41 42 46 44 46 39 36 26 20 21 27 29 31 31 31 33 35 36 36 35
22 23 23 23 21 22 24 28 30 30 33 38 43 46 48 49 51 50 48 49 51 54 57 60 61 55 49 55 50 46 41 45 38 30 22 19 19 21 24 28 30 30 31 33 35 36 37 36 34
19 20 21 20 17 18 21 22 20 21 25 30 36 41 45 48 50 51 53 54 55 59 62 62 60 55 51 48 49 48 46 41 33 26 21 19 21 26 28 30 31 32 32 34 35 36 34 32 31
16 19 22 22 18 15 16 17 15 19 23 26 29 34 39 42 46 49 53 56 59 60 60 60 56 52 48 41 44 38 33 39 35 26 21 22 23 26 29 32 33 34 34 35 33 30 29 29 30
13 16 18 20 19 18 16 16 19 24 24 24 26 29 32 36 41 45 49 53 56 57 56 55 54 51 48 40 41 40 32 25 26 23 22 25 25 27 30 31 33 35 35 32 28 26 27 27 26
13 15 18 21 23 24 21 18 23 26 24 26 30 32 34 37 40 43 49 54 57 55 53 54 53 47 42 40 45 46 33 26 21 19 23 26 28 32 36 35 32 30 28 26 25 23 23 23 22
17 18 20 22 25 29 28 20 27 28 28 31 34 35 35 35 38 43 46 49 53 49 40 36 36 39 39 33 39 40 34 28 22 21 25 30 32 32 30 30 28 26 25 26 25 24 23 22 22
22 23 25 27 29 30 32 23 29 30 30 32 34 36 36 37 40 43 42 41 38 32 27 25 24 27 29 30 30 33 30 29 25 26 30 32 28 24 25 27 28 27 27 27 27 26 24 24 23

GEFSSGP_500_meanwind_006.txt.gz
Wind_Speed
9 11 13 15 14 13 13 12 13 14 13 13 14 14 15 15 16 15 13 12 14 13 11 11 10 7 6 4 4 3 2 0 1 1 3 4 5 4 4 5 7 7 7 7 5 3 2 1 1
7 9 10 12 13 14 12 10 11 10 10 11 11 11 12 12 12 14 12 10 9 9 8 7 7 6 4 2 1 1 2 3 3 4 5 6 7 5 3 3 5 6 6 6 5 4 3 1 1
7 8 8 9 10 11 10 9 8 7 7 8 8 8 9 9 9 10 11 10 8 6 5 5 5 4 3 2 2 2 4 6 6 6 7 8 8 8 7 6 7 7 7 6 5 5 4 3 3
9 7 6 5 5 5 6 4 5 7 5 5 6 5 4 6 6 6 7 7 7 5 5 5 5 4 4 5 5 4 6 9 9 7 7 7 6 6 6 7 10 10 9 7 6 6 6 6 5
9 6 5 4 3 1 2 1 1 2 3 3 3 4 4 4 4 5 6 6 6 5 5 6 6 5 6 7 7 8 10 11 11 10 7 6 6 6 6 8 12 12 10 9 7 7 7 8 8
9 7 6 6 5 4 4 4 4 5 5 6 6 7 7 5 4 4 4 5 6 7 8 8 7 7 8 9 10 11 13 15 14 12 9 6 7 8 8 9 10 10 9 10 10 9 8 8 10
7 7 7 7 6 5 4 3 2 5 8 10 10 11 10 7 5 4 3 3 5 7 8 9 10 10 11 12 14 14 15 15 14 13 10 9 9 10 10 9 9 8 9 10 10 10 9 8 9
8 8 7 7 6 4 4 4 5 6 8 10 11 11 11 10 9 8 6 5 5 7 8 8 9 11 12 13 14 15 16 15 14 13 13 13 13 13 12 11 10 9 10 10 10 9 9 9 9
12 11 11 11 9 7 6 5 7 7 7 7 8 9 9 10 10 9 8 7 7 8 8 8 9 10 11 13 15 16 16 16 15 15 15 15 17 17 18 18 16 14 13 12 10 9 8 8 9
17 16 18 15 14 12 9 8 7 8 8 7 7 7 8 8 9 9 8 8 9 10 10 10 11 11 12 13 14 15 16 17 17 18 19 19 20 21 22 23 23 20 17 15 12 10 9 8 9
21 21 22 21 19 16 14 13 11 11 12 12 9 8 8 9 10 11 11 11 11 12 13 14 14 14 14 15 15 16 17 19 18 19 19 20 20 21 22 24 25 23 21 19 17 14 12 10 9
25 25 25 26 24 22 21 19 16 15 17 16 15 14 13 13 14 16 16 15 15 16 17 18 18 18 19 20 21 21 21 21 20 19 19 20 20 21 23 24 25 25 24 22 21 19 16 13 12
30 28 28 28 29 29 27 25 21 22 23 22 21 21 20 21 21 21 22 21 21 21 22 22 22 23 24 25 26 26 26 27 27 26 24 23 23 23 25 26 26 26 25 25 24 23 20 18 17
33 32 31 32 33 33 32 30 28 29 27 27 26 26 27 28 28 27 27 27 28 29 29 29 30 29 30 31 32 32 32 33 33 33 32 29 27 26 27 28 28 28 27 27 26 26 24 22 21
36 36 36 37 37 37 35 33 38 36 34 33 32 31 31 32 32 32 32 33 34 35 35 36 36 36 36 37 38 37 37 38 38 37 37 36 33 31 30 30 30 30 30 29 29 29 28 27 25
39 38 39 42 40 41 38 36 48 41 39 38 37 36 35 36 37 37 37 38 39 39 39 40 41 42 43 43 43 44 43 42 42 41 42 42 40 38 35 33 33 33 33 33 33 33 31 30 29
39 39 41 43 43 43 42 44 50 45 44 43 42 41 41 41 42 42 42 43 44 44 44 45 45 45 47 47 48 49 50 48 47 46 47 47 46 43 40 38 38 37 36 36 37 36 34 33 33
33 35 37 39 42 43 45 48 49 48 47 46 46 45 45 44 45 46 47 47 48 49 49 49 48 48 49 50 51 53 55 55 54 53 54 54 52 50 48 45 44 44 41 39 38 38 37 36 35
25 26 29 32 34 37 41 45 46 47 47 47 46 45 44 43 43 44 45 45 46 47 47 46 47 48 49 51 53 55 58 61 61 61 60 59 59 59 58 54 50 49 48 44 41 40 39 37 36
25 25 27 27 28 29 32 35 36 38 41 42 42 42 41 40 40 41 41 41 42 43 44 45 46 48 50 51 53 56 59 62 63 63 62 60 60 61 60 59 55 54 53 49 46 42 40 38 38
27 29 30 30 30 31 33 32 34 33 35 37 38 39 38 38 37 38 39 40 41 43 44 45 46 47 48 49 50 52 53 56 62 65 63 59 56 55 53 51 52 55 55 53 50 47 43 42 41
30 31 31 31 30 32 35 35 36 37 37 38 40 41 42 41 41 41 41 41 42 42 42 43 45 46 47 48 49 51 51 49 50 54 55 53 52 51 47 43 46 51 52 53 53 51 48 47 46
31 30 30 29 29 29 30 32 31 35 35 37 39 39 39 39 39 38 38 38 38 38 38 39 40 41 43 44 46 48 49 49 50 50 50 51 49 46 44 39 40 47 50 51 53 52 51 51 50
24 24 24 24 24 24 25 26 27 29 28 30 31 30 31 31 31 31 31 31 31 33 34 36 37 38 41 43 45 47 49 50 49 48 46 46 44 41 39 36 36 43 48 49 49 49 49 48 47
16 17 16 15 15 17 23 23 26 26 26 26 26 25 25 26 27 28 29 30 31 33 35 36 38 39 41 43 45 48 50 51 51 48 44 42 39 37 35 34 34 38 40 40 42 41 40 39 39
14 15 16 15 14 15 17 18 21 22 23 24 25 26 26 27 28 29 29 30 32 33 35 37 38 40 43 46 48 47 48 49 49 47 41 37 34 32 31 32 33 33 33 34 36 36 37 37 37
12 13 15 17 17 17 18 19 20 24 26 26 27 28 30 31 31 31 31 31 32 33 36 38 39 42 45 47 46 44 43 44 43 40 36 32 30 28 29 31 32 31 31 31 32 34 36 37 36
13 15 17 20 24 24 23 23 24 27 31 31 30 30 32 32 33 34 33 32 33 34 36 38 41 44 46 44 40 38 37 37 36 34 33 31 28 25 25 27 27 26 26 28 30 31 32 33 32
20 22 25 27 29 32 33 30 29 32 36 37 34 32 33 33 34 35 35 35 35 35 36 38 40 43 42 37 34 32 32 32 32 32 33 32 28 26 25 25 24 24 27 30 32 32 30 28 27
24 25 28 31 33 35 38 37 33 34 39 42 39 36 36 35 35 35 35 35 36 35 34 35 38 38 34 29 27 28 30 32 33 32 30 29 29 28 27 27 26 27 29 30 30 29 27 26 27

GEFSSGP_500_meanwind_012.txt.gz
Wind_Speed
13 13 13 13 10 12 10 0 5 6 7 6 6 5 6 8 8 9 9 8 7 6 5 3 2 2 3 5 5 6 6 7 9 11 12 12 12 11 9 9 11 12 13 13 12 12 11 11 11
12 11 12 11 9 9 6 5 2 4 5 5 5 4 4 5 5 7 7 7 8 7 5 3 2 2 4 5 5 5 6 8 10 11 12 12 11 9 8 8 10 12 12 12 12 12 12 12 12
11 11 10 7 12 9 5 4 2 1 1 2 3 3 2 2 2 2 4 6 7 7 6 5 4 4 5 6 6 5 5 7 10 12 12 12 11 8 7 8 10 11 11 11 11 11 12 12 13
12 11 10 8 9 4 3 5 3 5 3 2 2 1 1 1 1 2 4 6 7 7 7 7 6 6 8 8 7 6 6 8 10 12 13 13 12 10 8 9 10 11 10 10 11 11 11 12 13
12 12 10 8 4 3 5 3 1 4 4 4 5 6 5 5 7 8 8 8 9 9 9 9 10 10 11 11 11 10 9 10 12 13 14 13 13 11 10 10 11 11 10 10 11 11 11 11 12
14 13 12 4 2 6 7 4 1 3 4 4 5 7 6 6 8 9 11 12 12 12 13 13 13 13 14 14 14 13 13 13 13 14 14 14 14 14 13 12 11 11 10 10 11 11 10 10 11
14 13 11 5 5 9 11 6 5 6 5 6 7 9 5 7 8 9 11 12 12 12 13 14 15 16 16 16 16 15 14 13 14 14 15 16 16 16 16 15 14 13 13 13 13 12 11 10 10
13 12 9 7 4 13 13 7 7 5 10 8 8 11 7 8 8 9 11 13 13 13 12 14 14 16 17 17 17 16 15 14 14 15 16 17 18 18 19 19 18 18 18 17 16 16 14 11 10
13 12 9 6 5 12 11 7 8 8 11 11 11 12 12 10 9 9 11 13 14 14 13 14 14 16 17 17 17 17 17 17 16 17 18 20 21 22 22 23 23 23 23 22 21 20 19 15 13
16 15 12 10 15 14 11 8 8 7 11 16 15 16 17 14 13 12 12 12 14 14 14 14 14 17 18 18 19 20 20 20 20 20 22 23 24 25 25 25 25 24 24 23 23 23 23 21 17
20 20 19 17 18 19 16 13 12 9 9 17 16 17 19 17 16 17 16 16 16 17 17 18 18 19 21 22 23 24 24 24 25 25 26 26 27 27 27 27 27 27 27 27 25 23 25 25 22
26 24 23 21 20 20 20 19 17 16 16 24 24 24 24 23 22 21 22 22 21 22 23 23 25 25 26 27 26 27 28 28 28 29 30 31 31 31 32 32 32 32 32 33 31 27 26 27 27
29 28 27 26 25 25 25 23 22 23 24 30 30 28 28 28 29 29 27 27 27 27 30 30 30 31 31 32 31 30 31 31 32 32 32 34 35 35 35 35 35 35 34 34 35 33 29 28 29
32 32 30 28 28 29 31 29 26 25 27 34 34 31 31 32 32 34 33 32 33 33 34 35 35 35 36 37 37 36 36 36 36 36 35 35 37 39 39 40 40 40 39 36 35 36 34 31 30
34 33 31 29 30 32 33 33 28 27 31 39 38 36 34 33 34 36 38 38 39 39 39 40 40 41 41 42 42 42 41 41 40 40 40 38 38 40 42 43 44 45 45 43 40 39 38 36 34
34 34 33 28 29 34 35 32 26 29 35 42 42 39 36 34 37 40 42 43 44 44 44 44 45 46 46 46 46 45 44 44 44 44 43 42 41 43 45 46 47 48 49 50 47 45 43 41 39
29 28 26 20 27 36 37 32 27 32 38 43 45 45 46 44 44 44 45 46 47 48 48 48 48 49 49 48 47 46 45 44 45 45 45 45 44 44 47 49 50 52 53 53 53 51 48 46 44
15 13 14 13 24 36 40 35 28 32 43 46 49 51 51 49 48 46 46 47 47 47 47 48 47 47 46 44 43 42 42 42 43 44 45 46 45 45 47 49 51 54 55 55 55 54 52 50 49
20 21 22 19 25 37 40 37 31 29 39 44 44 44 44 44 44 43 42 41 41 41 41 41 42 42 41 41 41 42 42 43 44 44 45 46 47 48 49 50 51 52 53 52 53 52 51 52 53
15 17 20 21 27 34 34 31 28 27 33 40 39 40 40 40 40 40 39 39 39 39 39 39 41 42 42 43 44 44 45 45 45 47 47 48 49 50 50 51 51 51 50 50 49 50 51 51 53
17 17 22 28 30 31 32 32 28 27 33 38 39 38 38 39 39 39 39 40 41 42 42 43 44 45 46 47 47 48 48 48 48 48 49 49 50 51 51 51 51 51 50 48 47 48 48 49 49
22 22 29 32 31 31 30 33 28 25 34 38 39 36 35 35 37 38 38 39 40 41 42 43 44 44 46 47 48 48 48 48 48 49 49 49 49 50 51 52 53 52 51 49 47 47 46 45 44
26 27 29 29 29 28 23 25 21 21 31 35 35 33 35 35 35 35 36 36 37 38 38 39 39 39 40 42 43 44 45 45 45 46 46 47 48 49 49 50 52 53 52 50 48 46 45 43 41
20 19 18 16 16 18 17 19 16 21 26 32 37 39 37 35 34 33 33 34 34 35 35 35 35 35 36 38 40 41 42 43 44 44 45 47 48 49 48 49 51 52 52 50 48 46 44 41 38
15 14 12 8 9 14 17 17 17 22 27 32 36 38 37 36 35 35 35 34 35 36 36 36 37 37 38 39 41 42 43 44 45 47 48 49 50 50 49 49 50 51 50 48 46 43 41 38 36
12 12 11 12 11 13 15 18 20 25 29 30 32 35 37 39 39 40 39 39 38 38 39 39 39 40 40 41 42 44 46 47 48 49 50 52 52 51 50 49 48 48 46 44 42 41 37 35 36
12 11 11 15 16 15 14 15 21 29 32 33 36 38 39 40 42 43 44 44 42 41 41 41 41 41 42 43 44 46 47 48 49 50 52 52 52 51 48 46 44 42 40 37 36 36 33 33 35
16 16 18 20 21 20 18 17 23 30 33 37 39 39 40 40 42 44 45 45 45 44 44 44 43 43 44 45 46 47 48 48 49 49 50 50 48 45 42 39 37 36 33 31 32 31 30 30 30
19 21 22 23 23 25 25 20 19 28 33 36 38 40 38 38 39 43 44 44 44 44 45 46 45 44 45 46 47 47 47 47 47 47 46 44 41 38 35 33 32 32 31 30 30 29 28 28 26
15 17 21 23 24 25 26 22 21 27 30 34 38 40 39 38 38 41 42 43 42 41 41 42 43 43 43 44 44 44 43 43 42 41 39 36 34 32 30 29 29 29 29 30 29 29 27 26 24

GEFSSGP_500_meanwind_018.txt.gz
Wind_Speed
13 13 10 8 5 3 5 11 10 6 7 9 8 8 12 12 7 4 4 4 3 4 4 5 5 7 8 10 10 10 9 10 12 13 15 16 16 14 12 13 16 17 17 16 15 14 14 14 14
12 11 8 5 3 3 4 9 8 6 6 6 5 6 9 11 7 6 6 6 5 5 5 6 6 7 7 8 9 8 7 8 10 12 13 15 15 14 12 12 14 15 16 17 17 16 16 15 15
11 10 5 1 2 5 6 7 5 4 4 4 3 4 6 8 6 4 5 6 6 7 8 8 8 8 8 8 8 8 8 8 9 11 12 13 14 14 13 12 13 14 15 16 17 18 18 17 17
10 8 4 3 3 5 6 7 6 3 1 1 3 3 3 4 4 3 3 4 6 8 9 10 10 10 10 10 10 10 10 11 11 12 13 14 14 14 13 13 13 13 14 15 16 18 19 19 18
10 6 4 6 2 6 7 6 6 7 7 4 4 6 5 4 6 7 7 7 7 9 10 10 11 11 12 12 13 13 13 13 14 14 14 14 14 14 15 15 15 14 14 15 16 17 18 18 18
11 7 6 5 2 5 7 6 6 9 8 6 5 6 7 5 6 7 9 10 9 10 11 11 12 12 13 13 14 14 14 14 14 14 14 14 15 15 15 16 16 16 16 17 17 18 18 18 18
13 9 8 7 3 3 4 5 7 10 10 9 6 7 9 7 5 5 8 10 10 10 11 12 12 12 13 13 13 13 13 13 13 13 13 13 13 14 15 16 16 17 17 17 17 18 19 19 19
16 13 12 11 7 4 1 4 8 9 11 11 9 8 9 8 5 4 6 9 10 12 13 13 13 13 12 12 12 12 12 13 14 13 13 13 13 13 14 15 15 15 15 16 16 16 17 19 20
20 17 16 15 12 6 4 6 9 10 11 12 11 9 9 9 8 4 3 7 9 11 12 13 13 13 13 13 13 14 14 15 16 16 16 16 16 16 16 16 15 15 16 16 17 16 17 17 18
21 20 20 19 16 10 6 8 10 13 15 16 15 14 12 11 11 9 7 8 10 11 13 15 16 16 16 17 18 19 19 19 20 21 20 20 20 20 21 20 19 18 17 17 17 17 16 17 17
21 22 23 21 17 12 8 8 12 17 21 23 23 23 21 18 17 18 17 15 14 15 16 18 20 21 21 22 23 24 24 25 25 25 25 24 24 24 25 25 24 23 21 20 19 19 18 18 17
22 23 24 22 19 16 13 12 15 21 24 27 28 29 28 25 24 24 23 21 20 20 20 21 24 26 27 27 28 29 29 29 30 30 30 29 29 28 27 28 28 28 27 25 24 23 22 22 20
25 24 24 22 21 20 19 17 18 22 27 30 32 33 32 31 29 27 25 25 26 26 25 24 26 29 31 32 32 33 33 34 34 35 35 34 33 33 32 30 30 31 31 30 28 27 26 26 25
29 27 25 24 23 24 25 25 24 25 29 33 35 36 37 36 34 32 31 30 30 31 32 31 32 34 35 36 37 37 37 37 37 37 37 37 35 35 35 35 34 33 33 32 31 31 30 29 29
31 29 28 27 27 28 30 29 29 28 30 33 36 38 39 39 38 38 37 37 37 37 38 38 38 38 39 40 41 40 40 39 37 36 36 36 36 37 37 37 36 36 35 34 33 33 32 32 32
33 31 30 30 30 30 32 31 30 29 28 31 34 36 38 39 40 40 41 41 41 41 40 40 40 40 40 40 41 41 41 40 38 37 36 36 36 37 37 39 38 38 37 35 34 34 34 35 35
33 31 30 29 30 31 32 32 31 30 28 30 32 35 36 37 38 39 39 40 40 40 39 39 39 39 39 39 39 39 39 38 38 37 37 37 38 38 39 39 40 39 37 37 36 36 37 37 38
27 25 23 23 25 26 28 28 27 28 27 28 31 34 35 35 34 34 34 35 37 37 38 38 38 38 38 38 37 37 37 37 37 37 37 38 39 40 41 41 42 42 42 41 40 39 39 39 40
19 17 18 20 22 23 24 26 27 27 26 30 34 36 35 33 32 31 31 31 32 34 36 38 38 39 40 40 39 39 38 38 38 38 39 40 41 42 43 42 43 43 43 42 42 41 40 40 41
14 17 21 24 25 25 26 28 30 31 32 33 36 36 35 32 29 29 30 32 32 33 35 36 36 38 39 40 40 40 39 38 38 39 39 40 41 42 42 42 41 41 41 41 40 40 41 40 41
15 19 21 24 25 27 30 31 32 34 35 34 34 34 31 28 27 29 32 32 33 33 33 33 34 35 36 37 38 39 38 37 36 36 36 37 38 38 38 39 39 38 39 38 38 39 39 39 39
18 20 21 20 24 28 32 35 32 33 33 31 29 27 25 24 26 29 31 32 32 32 32 33 34 35 37 37 38 38 38 38 37 36 35 35 36 36 37 38 38 38 39 40 39 40 40 41 40
17 18 18 17 18 20 24 26 22 22 21 21 21 22 21 22 24 27 29 31 31 32 33 34 36 38 39 40 39 39 40 40 40 39 38 37 37 37 38 39 40 41 41 42 43 43 43 43 42
10 10 11 12 12 13 14 16 13 13 13 15 16 18 19 22 25 27 29 31 32 33 34 35 37 39 41 42 42 42 42 42 42 41 40 39 39 39 39 40 40 42 43 44 45 45 46 45 45
5 5 5 7 9 9 12 14 14 14 16 18 20 22 24 25 26 27 28 31 32 33 33 35 37 39 40 41 42 43 44 44 44 43 43 42 41 41 41 41 42 43 44 45 46 47 47 46 46
5 6 5 4 5 5 11 15 16 17 19 21 24 25 26 27 28 29 31 32 34 34 35 36 37 38 39 40 41 41 42 43 44 45 45 45 44 44 44 44 45 45 45 46 46 46 46 46 46
7 8 8 8 7 7 11 16 20 22 24 25 26 27 28 29 30 31 33 34 35 36 37 38 39 40 41 41 40 40 40 40 41 43 45 46 46 46 46 46 46 46 45 45 44 44 43 43 43
10 10 11 11 11 9 7 10 17 21 24 26 27 28 29 30 32 33 34 35 36 37 37 39 40 40 41 42 41 40 39 39 39 40 41 43 44 45 45 45 44 43 42 41 40 38 37 36 36
11 11 12 13 14 15 12 10 18 20 23 25 27 29 31 33 34 35 36 36 36 36 37 38 39 40 41 42 42 41 39 38 37 37 38 39 39 40 40 40 39 39 37 35 32 30 29 29 28
11 13 14 16 17 19 20 18 21 24 26 28 30 33 35 36 37 38 39 40 39 38 38 38 39 39 40 41 40 40 39 37 36 35 35 35 35 35 35 35 34 33 31 28 26 24 25 25 26

GEFSSGP_500_meanwind_024.txt.gz
Wind_Speed
5 4 3 2 2 4 5 6 7 10 12 12 11 11 10 9 7 7 7 8 9 9 9 8 8 9 10 11 11 11 12 12 13 13 14 13 13 13 13 13 14 14 15 16 16 17 17 17 16
6 4 2 1 1 1 3 4 6 8 9 10 10 10 10 10 8 7 7 8 9 8 7 7 8 9 10 10 10 10 10 11 11 11 11 11 11 11 11 11 11 12 13 13 14 14 14 14 14
9 7 4 2 2 1 3 4 6 6 6 7 7 7 8 8 8 7 7 7 7 6 6 6 7 8 9 9 9 9 9 10 10 9 9 9 9 9 9 9 9 10 10 11 11 12 12 12 12
11 10 8 5 2 2 4 6 6 4 3 4 5 6 7 8 9 9 9 9 8 8 7 7 8 8 8 8 8 8 8 8 8 8 8 8 8 8 8 8 8 8 9 9 9 10 10 10 10
12 11 9 7 5 4 4 5 5 4 3 3 3 5 7 8 10 10 11 10 10 9 9 9 9 9 9 8 8 8 7 7 7 7 7 8 8 8 8 9 9 9 9 9 9 9 9 9 9
15 13 11 10 8 7 6 4 3 3 0 2 3 4 6 7 8 9 9 9 9 9 9 10 10 10 10 9 9 8 7 7 7 8 8 9 9 10 10 10 10 10 10 10 9 9 9 10 10
18 16 14 12 11 10 8 6 5 3 1 1 3 4 5 6 6 7 7 7 8 9 9 10 10 10 10 10 10 9 8 8 9 9 9 10 12 12 13 13 13 13 13 12 13 13 12 12 12
20 18 16 14 13 12 10 9 7 5 1 1 2 4 5 6 6 7 8 8 9 9 9 10 10 10 11 11 11 11 11 11 12 12 13 14 15 16 16 17 17 17 17 17 17 17 17 16 15
22 20 18 16 14 13 11 11 9 6 3 2 1 3 5 6 8 10 11 12 13 13 13 13 13 13 13 14 14 15 15 15 16 17 17 18 18 19 20 20 21 21 21 21 21 21 20 19 18
24 23 20 17 15 13 11 11 10 7 6 5 5 5 7 9 11 14 15 16 16 17 17 17 17 18 18 18 19 20 20 21 21 22 22 23 23 23 24 25 25 25 25 25 25 24 24 23 22
25 25 24 21 18 15 13 12 11 11 11 11 11 12 13 14 16 18 19 19 19 20 20 21 21 22 23 23 24 25 25 26 26 27 27 27 28 28 29 30 30 30 29 29 29 29 28 27 26
25 27 26 23 20 19 17 16 15 15 16 17 17 18 19 20 21 22 23 23 23 23 24 24 25 26 27 28 29 30 30 30 31 32 32 32 32 33 33 34 34 34 34 34 34 34 33 32 31
24 27 26 24 24 23 22 21 20 19 21 22 23 24 25 26 26 26 26 26 25 26 26 27 28 29 30 32 33 34 34 34 35 35 36 36 36 36 37 37 37 38 38 38 38 39 38 37 35
25 24 26 27 28 27 26 26 25 24 26 27 28 29 30 30 30 29 28 27 28 28 29 29 29 29 30 32 33 35 36 37 37 37 39 39 39 39 39 39 38 39 40 40 40 41 41 40 38
29 27 28 30 31 30 29 29 29 29 31 32 33 33 34 33 32 31 30 29 30 30 31 31 30 30 31 32 33 34 35 36 37 38 39 40 40 40 40 39 39 40 40 40 40 40 40 39 38
33 33 33 34 33 32 32 32 33 34 35 35 35 35 35 35 34 32 30 30 31 31 32 32 32 32 32 32 33 33 34 35 36 37 38 39 39 40 40 40 40 40 41 41 41 42 40 40 38
36 36 37 37 36 36 36 36 36 37 37 37 37 36 35 34 32 30 30 31 31 33 34 35 35 34 34 34 34 34 34 35 35 36 37 38 39 40 41 41 41 42 43 43 43 43 42 42 40
34 36 37 38 38 38 38 38 38 38 38 37 36 35 33 30 29 30 32 33 34 35 36 37 36 35 35 34 34 34 35 36 36 37 38 38 39 40 41 42 42 43 43 43 44 44 44 43 41
29 31 33 35 36 37 38 38 37 37 36 35 34 31 30 29 30 32 34 35 36 36 36 36 35 34 34 34 35 35 36 36 37 37 38 38 39 40 41 42 42 43 43 43 43 43 43 42 41
26 29 31 33 33 34 35 35 34 34 34 33 31 30 30 31 33 35 35 35 35 35 35 34 33 32 34 35 35 36 36 37 38 39 39 39 39 39 40 41 41 41 40 40 40 40 40 39 39
24 26 29 30 31 31 32 32 32 33 33 32 32 32 33 35 36 36 34 32 31 32 33 32 32 33 34 34 34 34 35 36 37 38 39 40 40 40 40 40 40 40 39 38 37 37 37 36 36
22 24 26 27 27 27 29 30 31 32 33 34 34 34 35 35 34 32 30 28 29 30 31 31 32 32 31 31 31 31 32 33 35 37 38 39 40 41 41 41 41 41 41 40 38 37 36 35 34
20 22 23 24 24 25 27 29 29 30 31 32 32 31 30 28 27 25 24 25 27 28 29 30 30 29 28 26 26 27 29 31 33 35 37 38 39 40 40 41 42 42 42 42 41 39 38 37 36
16 17 18 19 19 20 22 23 23 23 23 23 23 22 22 22 22 22 23 24 26 27 28 28 27 26 24 24 24 26 28 30 32 34 35 36 38 38 39 40 41 42 43 43 43 42 41 40 39
12 13 14 14 14 16 17 18 17 18 20 20 19 20 21 22 22 22 23 23 24 25 26 25 25 25 25 26 27 29 30 32 32 34 35 36 36 37 38 38 39 41 42 43 44 43 42 41 41
12 13 13 14 14 14 16 17 16 18 18 19 20 21 22 22 22 22 23 23 24 25 25 26 27 29 30 31 32 33 34 35 35 35 36 37 37 37 37 37 37 38 40 41 43 43 43 42 42
13 13 14 14 14 14 15 16 18 18 18 19 20 20 21 21 21 22 24 25 27 28 29 30 31 33 34 36 36 37 37 38 37 37 37 38 38 38 37 36 36 36 37 38 39 40 41 41 41
12 13 14 15 16 16 16 18 20 20 21 22 22 22 23 24 25 26 28 29 31 33 34 35 36 37 38 39 39 39 39 39 39 38 38 39 39 39 37 36 35 34 34 34 35 36 37 38 38
12 13 14 16 18 20 20 20 20 22 24 26 27 28 28 29 30 31 33 34 36 38 39 40 40 40 40 41 40 40 41 41 40 40 39 39 39 39 37 36 34 32 32 31 31 32 33 34 35
14 16 18 20 21 23 25 27 25 26 28 30 31 32 33 34 35 36 38 40 42 43 44 45 45 45 45 45 44 43 42 42 41 40 39 39 39 38 37 36 34 32 30 29 28 28 28 29 29

GEFSSGP_500_meanwind_030.txt.gz
Wind_Speed
6 7 7 7 8 8 6 6 7 8 9 10 10 10 9 8 7 6 6 6 6 6 6 6 5 3 2 2 3 3 4 5 5 5 5 6 6 6 6 6 6 6 6 6 6 6 6 6 7
3 4 5 6 8 5 3 3 5 7 8 9 9 10 10 9 9 7 5 4 4 4 4 4 3 2 2 2 3 3 4 5 5 5 5 5 5 5 5 5 5 5 5 5 5 5 4 4 4
2 1 2 4 4 2 3 2 1 4 5 6 6 7 7 7 7 5 3 2 2 3 3 3 2 2 3 3 4 4 4 5 5 5 5 5 4 5 5 5 6 6 7 7 7 7 6 6 5
5 3 2 1 3 3 3 3 2 1 1 2 2 3 4 4 4 2 2 1 2 2 2 3 3 3 3 4 4 5 5 5 5 5 5 5 5 5 6 6 7 8 9 9 9 9 9 9 8
8 7 5 4 5 4 4 4 4 3 3 1 0 1 2 3 2 1 1 2 2 3 3 3 4 4 4 4 5 5 5 5 6 6 6 6 7 7 8 8 9 10 11 11 11 11 11 11 11
11 9 7 8 8 6 5 5 5 6 5 3 1 0 1 2 2 1 1 2 2 3 3 4 5 5 6 6 6 6 7 7 8 8 8 9 9 10 10 11 12 12 13 13 13 13 13 14 14
14 12 11 11 11 9 7 7 6 6 6 4 2 1 1 0 1 1 2 3 4 5 6 8 9 9 9 10 10 10 10 10 11 11 12 12 13 13 14 14 15 15 15 16 16 16 16 17 17
16 14 13 13 13 12 9 8 7 6 5 4 3 2 2 2 3 4 5 7 8 10 11 12 14 15 15 15 15 15 15 15 15 15 16 17 17 18 18 19 19 19 19 19 20 20 20 20 21
18 16 16 16 15 14 11 10 8 6 5 5 4 3 4 6 7 8 10 12 14 15 17 18 19 20 20 20 20 20 19 19 20 20 20 21 22 22 23 23 23 23 23 24 24 24 24 24 24
19 19 20 19 17 15 13 11 10 7 7 7 7 7 7 9 11 13 15 17 18 20 21 22 23 24 24 24 24 24 24 24 24 25 25 25 25 26 26 27 28 28 29 29 29 29 28 28 28
21 22 22 20 19 18 16 14 13 11 10 10 10 11 12 14 16 18 19 21 23 24 24 25 25 26 26 27 27 27 27 28 28 29 29 30 30 30 31 31 32 33 33 34 34 34 33 33 33
22 23 23 22 21 20 19 18 16 15 15 14 14 14 16 19 21 22 24 26 27 27 28 28 28 28 28 28 28 29 29 30 31 31 32 33 33 34 34 34 35 36 37 38 38 37 37 36 35
25 25 24 24 23 22 22 21 20 19 19 18 18 18 20 23 25 27 28 30 31 31 32 32 32 31 30 29 29 29 30 30 31 32 33 34 34 35 35 35 35 37 39 40 40 39 39 39 38
28 26 25 26 25 24 24 24 23 23 21 21 21 23 25 27 29 31 32 33 34 35 35 35 34 32 31 30 29 29 29 30 31 32 33 33 33 33 34 34 35 36 37 38 39 40 41 41 40
30 28 27 29 27 27 26 27 28 26 25 25 26 27 29 31 33 34 35 35 36 37 37 36 35 33 31 30 29 28 28 29 29 30 30 31 31 31 31 32 33 35 36 37 37 39 39 39 40
33 31 30 32 30 29 28 29 32 29 29 29 30 32 33 35 36 36 36 37 37 38 37 37 35 34 32 31 29 28 28 29 28 28 27 27 28 29 30 31 31 33 35 36 37 38 39 40 40
32 33 33 35 33 32 31 34 35 32 33 34 34 35 36 37 37 37 36 37 37 37 37 36 36 35 34 32 30 28 27 27 25 24 24 24 25 26 27 28 30 32 34 36 37 38 39 40 41
28 31 35 36 37 35 35 38 38 37 38 38 38 37 37 36 35 35 36 36 36 37 37 36 36 35 33 31 29 27 26 24 22 21 21 21 22 23 25 27 29 31 33 35 37 39 40 41 41
26 29 31 36 38 37 39 40 41 41 40 39 37 36 34 34 34 35 35 35 36 37 38 38 37 35 33 30 27 26 24 22 20 18 18 18 19 20 22 24 27 29 32 34 36 38 40 41 42
20 22 24 31 34 35 37 37 38 38 36 35 34 33 32 33 33 34 34 36 37 38 38 38 36 35 32 28 27 25 22 19 17 17 16 16 17 18 19 22 25 27 30 32 35 38 39 40 42
13 15 19 24 27 28 30 28 30 32 32 32 32 31 31 31 32 34 35 37 38 38 38 37 35 33 30 28 26 24 21 19 18 18 19 19 19 20 21 23 25 27 29 31 33 36 38 40 41
11 16 18 20 20 19 23 20 23 28 28 30 30 30 30 31 32 34 36 38 38 37 36 36 34 33 30 28 26 24 22 22 22 22 23 23 23 23 23 24 26 28 29 31 32 34 36 38 40
13 15 16 17 17 17 18 16 18 26 25 27 28 29 28 29 31 32 34 34 34 35 34 34 34 33 31 28 26 26 25 26 26 26 27 27 26 26 26 26 27 28 30 31 32 33 35 36 38
12 12 13 13 13 12 14 12 15 20 20 21 22 22 23 24 26 28 30 31 33 34 35 36 35 34 32 29 29 29 30 30 30 30 29 29 28 28 27 27 28 29 30 32 33 33 34 35 36
11 10 10 10 10 11 15 13 17 17 16 18 19 20 21 23 25 28 30 32 34 35 36 36 36 36 35 34 34 34 35 34 34 33 32 31 30 29 28 27 28 30 31 33 33 33 34 34 34
11 11 11 11 12 13 18 17 19 17 18 19 20 21 23 24 27 29 31 33 35 37 38 39 39 39 39 39 39 39 38 37 36 34 33 32 31 29 28 27 28 29 31 33 33 34 34 34 33
10 10 12 14 14 15 14 20 20 19 21 22 23 25 26 28 30 32 34 35 37 38 40 41 42 43 43 43 42 41 40 38 37 35 34 33 32 31 29 28 28 29 31 32 34 34 34 34 32
10 11 12 13 14 15 15 18 23 21 22 25 27 29 31 34 36 37 38 40 41 42 44 45 46 47 47 46 45 44 43 41 40 39 37 36 34 33 31 30 29 30 31 32 33 34 34 33 32
13 13 14 15 17 19 18 22 26 26 27 30 32 34 37 39 41 42 44 45 46 47 49 49 50 51 51 51 50 49 48 46 45 43 41 39 37 35 33 32 31 31 31 32 33 34 34 33 31
15 16 18 19 21 23 24 28 27 29 31 33 36 38 40 42 44 46 47 48 49 51 52 53 54 55 56 56 56 55 53 52 50 49 46 44 41 39 36 34 33 32 31 32 33 34 34 33 31

GEFSSGP_500_meanwind_036.txt.gz
Wind_Speed
13 15 14 13 13 16 6 1 2 2 0 2 3 6 5 2 1 2 2 1 1 2 2 1 1 2 3 4 6 7 8 9 9 9 8 7 7 7 8 8 8 9 10 10 10 10 11 11 11
11 12 11 11 13 9 1 4 4 2 1 1 1 2 3 3 3 4 2 2 1 1 1 1 2 3 4 5 6 7 8 9 9 9 9 8 8 8 8 8 8 9 10 10 10 10 10 10 10
8 8 8 8 9 5 0 6 4 4 2 3 3 2 2 2 3 3 3 2 2 2 3 3 4 5 6 6 7 8 9 10 10 10 10 10 10 9 9 9 9 9 10 11 11 11 11 11 11
4 6 6 7 3 2 5 6 4 6 5 5 6 4 4 4 4 4 3 3 3 4 4 5 5 6 7 8 8 9 10 11 12 12 12 12 12 11 11 11 11 11 12 12 12 11 11 11 11
3 4 4 6 3 2 7 7 4 6 6 8 8 7 7 6 6 5 4 4 4 4 5 5 6 7 8 9 10 11 12 13 14 15 15 14 14 14 14 14 14 14 14 14 13 13 12 12 13
5 5 4 10 9 4 7 8 6 8 8 10 10 8 8 8 7 6 5 5 5 5 5 6 7 8 10 11 12 14 15 16 17 17 18 17 17 16 16 16 17 17 16 16 16 15 15 15 15
8 7 4 9 14 7 7 10 10 8 8 7 12 10 10 9 8 7 6 6 6 6 7 8 10 11 13 14 15 16 17 18 19 20 20 20 20 20 20 20 20 20 19 19 19 18 18 18 18
10 8 6 4 15 9 9 9 12 12 11 9 12 15 11 10 9 8 7 8 9 8 10 11 12 14 15 16 17 18 19 20 21 22 23 23 23 23 23 24 24 24 23 22 22 22 22 22 22
12 10 6 5 13 13 11 9 12 14 15 14 13 18 14 11 10 9 9 10 12 13 13 14 15 16 17 18 20 20 21 22 23 24 25 25 26 26 27 27 28 27 27 26 27 27 26 26 26
15 14 8 11 14 12 11 10 12 13 15 15 18 20 14 12 12 12 12 13 15 17 18 18 18 20 20 21 22 22 23 24 24 25 26 27 28 28 29 29 30 31 30 30 30 30 30 30 30
19 18 16 17 18 19 16 12 14 14 17 21 24 22 13 10 13 15 16 17 18 20 21 22 22 23 24 24 25 26 26 26 26 27 27 28 29 29 29 30 30 31 32 32 32 32 32 32 33
22 23 24 25 23 24 23 18 15 14 20 26 30 29 19 12 16 19 21 22 22 23 25 25 26 27 28 29 29 30 29 29 28 28 29 29 30 30 30 31 31 31 31 31 31 31 31 31 32
23 23 26 26 26 25 24 22 20 18 20 27 31 32 26 19 21 24 25 26 25 26 27 29 30 31 32 33 33 32 32 31 31 31 31 31 31 31 31 30 30 30 30 30 29 30 30 30 31
23 25 27 26 25 25 24 24 22 21 22 28 32 31 30 25 25 27 29 29 29 31 32 33 34 35 36 36 35 34 33 32 32 32 32 31 31 31 30 29 29 28 29 29 29 29 29 30 30
23 25 25 24 24 23 24 25 22 20 23 29 31 32 32 29 28 30 33 33 35 35 37 36 37 38 38 38 36 35 34 33 32 32 31 30 30 30 29 28 27 26 26 26 26 26 27 28 29
20 22 23 21 19 21 24 25 19 19 27 31 32 31 32 33 33 35 38 39 40 39 40 39 41 41 39 38 36 35 34 33 32 31 30 29 28 28 27 26 25 24 24 23 24 24 25 26 28
14 17 17 15 16 23 25 24 17 24 29 31 32 31 31 35 36 40 42 43 43 44 43 41 43 42 39 37 35 34 32 33 31 30 29 28 27 26 25 24 23 22 21 20 21 22 23 25 26
8 12 14 12 17 26 25 22 18 25 28 31 32 33 35 39 41 43 44 45 45 46 45 42 42 40 39 38 36 35 32 31 30 28 27 26 26 24 23 21 19 19 18 19 19 20 22 23 25
16 15 12 12 19 27 27 24 22 26 29 31 35 37 38 42 43 44 45 44 44 44 45 43 40 40 39 38 37 35 33 31 29 27 25 25 24 22 21 20 19 18 18 19 20 21 22 24 26
9 11 14 16 21 25 28 28 25 26 30 36 38 39 41 43 42 43 43 43 43 42 39 37 35 35 37 37 36 35 33 31 27 26 25 24 23 22 21 20 20 20 20 20 21 21 22 24 26
6 10 13 18 21 22 21 20 18 20 26 32 34 34 36 39 41 42 41 39 38 37 37 35 35 36 37 37 36 34 33 31 30 27 25 23 23 22 22 22 22 22 22 22 23 23 23 24 27
9 13 17 19 20 20 17 18 19 22 26 30 32 32 34 34 37 38 41 41 38 37 36 35 37 36 36 37 35 35 33 30 29 27 25 24 24 24 25 25 25 24 24 25 25 25 25 26 27
12 15 16 15 14 14 13 17 20 24 27 30 30 30 33 34 36 37 37 37 39 38 37 34 34 35 36 36 36 37 34 30 28 26 26 26 26 26 27 28 28 28 28 28 28 28 28 28 28
11 9 6 9 15 20 21 21 22 24 25 29 30 31 33 34 34 34 35 36 37 36 37 36 36 36 37 37 37 37 35 32 30 28 28 29 30 30 30 31 31 32 31 31 30 29 29 29 29
12 10 11 16 22 26 19 13 17 20 22 27 30 31 32 33 34 35 35 36 38 39 39 40 40 39 40 40 40 40 38 36 35 34 33 33 34 34 35 34 34 34 34 34 33 32 31 31 31
10 9 11 16 18 22 24 21 21 24 27 29 29 30 32 34 35 37 38 39 40 41 42 43 44 44 44 45 45 45 44 42 41 40 39 39 39 39 39 38 37 37 36 36 35 34 33 32 32
10 9 10 15 14 14 17 26 29 30 30 28 28 32 35 37 39 40 42 43 44 46 47 48 49 50 50 51 51 50 50 50 49 48 47 46 46 44 43 43 41 40 38 38 37 36 35 34 34
14 15 14 15 16 17 15 26 34 34 32 31 33 37 39 40 42 44 46 47 48 50 52 53 54 55 55 56 56 57 56 56 56 56 55 54 52 50 49 47 46 44 42 40 39 38 37 36 35
13 15 18 19 19 21 21 28 32 35 35 38 40 41 43 45 47 49 50 52 53 54 55 56 57 58 59 60 61 61 61 61 60 60 60 59 58 57 55 53 50 48 45 44 42 40 39 37 35
11 16 20 21 22 23 25 31 34 36 38 40 42 45 48 50 51 53 55 56 56 57 58 60 61 62 63 63 64 65 65 65 65 65 64 63 62 61 60 58 55 51 49 47 45 43 41 39 37

GEFSSGP_500_meanwind_042.txt.gz
Wind_Speed
13 12 11 10 9 6 4 5 4 4 5 6 7 8 7 4 1 3 3 3 3 3 3 2 2 2 3 3 4 4 5 5 6 6 6 7 7 8 8 8 9 9 10 10 10 10 9 8 8
11 10 8 7 6 3 2 2 4 3 3 3 3 4 5 4 1 2 3 3 4 4 4 4 4 4 4 4 4 4 4 5 5 6 6 7 8 8 8 8 8 8 9 9 10 10 9 8 7
10 8 6 6 5 2 1 2 4 5 4 3 2 2 3 4 3 3 4 5 5 5 5 5 5 5 5 5 4 4 5 5 6 7 7 8 9 9 9 9 8 8 9 9 9 9 9 9 8
9 9 7 7 6 3 3 3 2 6 6 5 4 3 3 5 6 6 6 6 7 7 7 7 7 7 6 6 6 6 6 7 8 9 9 10 10 10 10 10 10 10 10 10 10 9 9 9 9
11 10 8 8 8 6 6 5 4 6 7 7 7 6 5 6 7 7 8 8 8 8 8 8 8 7 7 7 8 9 9 10 11 12 12 13 13 12 12 12 12 12 12 12 12 11 11 11 11
12 11 10 11 11 9 8 9 8 7 8 8 8 7 6 7 8 9 9 9 9 9 9 9 9 9 9 10 11 12 13 14 14 15 15 15 15 15 15 15 15 15 15 15 14 14 14 14 14
14 12 11 12 12 9 10 12 11 10 9 10 9 10 9 9 10 10 11 10 10 10 10 11 11 12 13 14 14 15 16 16 17 17 18 18 18 18 18 18 18 18 18 18 18 17 17 17 17
16 15 13 13 13 9 11 13 13 13 10 10 10 12 14 13 12 12 12 12 11 12 13 14 14 15 16 16 17 17 17 18 18 19 19 20 20 20 21 21 21 21 21 21 21 20 20 20 20
18 18 17 16 15 9 10 12 13 14 13 12 14 15 18 18 17 15 14 14 14 14 15 16 17 18 18 18 19 19 19 19 20 20 20 21 22 22 22 23 23 23 23 23 23 22 22 23 23
19 19 20 21 19 12 10 10 13 14 14 16 17 19 21 21 19 16 14 15 16 17 18 19 20 20 20 20 21 21 21 21 21 21 22 22 22 23 23 23 24 24 23 24 23 23 23 24 23
20 21 24 25 22 18 16 15 16 18 18 19 20 23 25 25 23 21 19 18 20 23 24 24 23 23 23 24 24 24 23 23 22 23 22 22 23 24 24 24 24 25 24 24 24 24 23 24 24
21 22 28 30 28 25 23 21 20 21 22 23 24 26 28 29 28 28 25 24 26 27 28 28 27 27 28 28 28 27 26 26 25 24 24 23 24 24 24 24 24 25 25 25 25 24 23 23 23
20 21 26 30 31 30 28 26 26 26 26 28 30 31 32 32 32 31 31 31 30 30 30 31 30 31 32 31 31 29 28 27 26 25 24 24 24 24 24 24 24 24 24 24 24 24 23 23 23
20 21 21 22 26 29 30 29 30 29 30 31 32 33 34 34 34 34 34 34 35 34 33 35 36 35 35 34 30 29 29 29 28 26 25 25 25 25 24 24 24 24 24 23 23 23 23 22 21
19 18 16 17 20 23 27 29 28 27 28 29 30 32 33 35 37 37 37 38 39 39 39 40 41 39 36 36 32 30 29 29 28 26 25 25 25 25 25 24 23 23 23 22 22 21 21 20 19
18 16 13 13 15 17 23 25 21 21 24 26 29 32 34 36 38 40 40 41 41 42 45 44 44 41 38 37 35 28 28 28 27 26 24 24 24 25 24 23 23 22 22 22 21 20 19 18 16
17 15 13 12 12 13 17 17 16 19 22 26 30 33 36 38 41 42 42 43 44 43 44 45 45 41 38 36 32 28 28 27 25 23 21 22 23 23 23 23 23 23 22 21 20 19 18 17 15
15 14 12 11 12 13 15 17 18 22 25 28 31 34 37 40 42 43 43 44 44 45 46 47 45 42 40 38 29 27 26 24 23 22 23 23 22 22 22 22 23 22 22 21 19 18 18 17 16
11 12 12 12 13 14 16 19 22 26 29 32 35 37 39 41 42 41 42 42 44 46 47 45 45 41 37 34 27 22 22 22 21 21 22 22 23 23 23 23 23 23 22 21 20 19 19 18 17
11 15 18 19 18 19 21 23 27 29 32 34 36 38 40 41 41 41 40 42 43 44 44 43 42 39 35 33 25 21 21 21 21 21 21 23 24 25 25 25 24 23 23 22 21 21 21 20 19
13 17 21 24 26 26 26 27 29 32 34 35 35 36 36 37 37 38 39 41 42 42 41 41 39 37 35 31 27 25 24 22 21 21 21 22 24 25 26 25 25 25 25 24 23 23 23 23 22
12 15 18 21 24 27 28 30 30 32 34 35 34 34 33 34 35 37 38 39 40 40 40 39 37 36 34 32 29 27 27 25 23 23 23 23 24 24 25 26 26 26 26 26 26 25 25 25 25
8 10 13 15 17 19 21 24 25 29 31 32 33 33 33 33 34 35 36 37 38 38 39 39 37 36 35 33 32 31 29 28 27 27 26 25 25 24 25 26 26 26 28 28 28 28 27 27 27
8 10 10 11 11 12 14 19 20 23 24 27 31 33 33 33 34 34 35 37 38 40 42 41 40 38 37 37 35 34 33 33 32 32 32 31 30 29 29 28 28 29 30 31 31 31 30 29 29
8 10 9 9 10 12 15 19 20 22 22 22 22 25 28 31 33 34 36 38 40 43 44 44 44 43 43 42 42 41 40 40 39 39 39 38 37 36 34 33 32 32 33 33 34 34 33 32 32
8 11 13 13 13 15 17 20 21 23 24 25 26 27 28 30 31 33 36 40 43 45 46 47 48 49 49 49 48 48 47 46 45 45 44 44 43 43 42 41 38 38 38 38 38 38 37 36 35
12 14 16 17 17 18 20 21 22 24 27 29 31 33 33 35 36 39 42 46 48 50 52 53 53 53 53 53 53 53 52 52 52 51 50 50 49 48 48 47 46 45 44 44 43 42 41 40 38
16 18 19 19 18 20 22 25 27 29 31 34 36 38 41 43 45 47 49 52 54 56 58 58 59 59 59 59 59 58 57 57 56 56 56 55 55 54 53 52 51 51 50 49 49 48 46 44 42
15 17 17 17 18 22 25 28 31 33 36 39 41 43 45 47 49 51 53 55 56 58 60 62 64 65 65 65 65 65 64 63 62 61 60 60 59 59 58 58 57 56 55 54 53 52 51 49 47
15 17 18 18 21 24 28 32 35 38 41 43 45 47 49 51 53 55 57 59 61 63 65 67 68 69 70 71 71 69 69 67 66 65 64 64 64 64 63 63 62 61 59 58 57 55 54 52 50